FW0887 Weather Reports


Display with metric or nautical units.
time (UTC)temp
F
wind
direction
speed
MPH
gust
MPH
rain 1hr
in
rain 24hr
in
rain mn
in
humidity
%
barometer
mb
20260902000118 54 0.0 0.0 0.00 0.00 0.00 86 1022.4
20260902000040 53 271 0.0 0.0 0.00 0.00 0.00 86 1021.5
20260901234526 53 271 0.0 0.0 0.00 0.00 0.00 86 1021.4
20260901233027 53 271 0.0 0.0 0.00 0.00 0.00 86 1021.5
20260901231526 53 271 0.0 0.0 0.00 0.00 0.00 85 1021.5
20260901230049 54 0.0 0.0 0.00 0.00 0.00 84 1022.7
20260901230030 53 271 0.0 0.0 0.00 0.00 0.00 85 1021.7
20260901224534 54 271 0.0 0.0 0.00 0.00 0.00 84 1021.6
20260901223041 54 271 0.0 0.0 0.00 0.00 0.00 84 1021.7
20260901221518 54 271 0.0 0.0 0.00 0.00 0.00 83 1021.6
20260901220140 55 0.0 0.0 0.00 0.00 0.00 82 1022.3
20260901220019 55 271 0.0 0.0 0.00 0.00 0.00 83 1021.6
20260901214515 55 271 0.0 0.0 0.00 0.02 0.00 82 1021.5
20260901213014 55 271 0.0 0.0 0.00 0.02 0.00 81 1021.4
20260901211523 56 271 0.0 0.0 0.00 0.02 0.00 81 1021.4
20260901210230 57 0.0 0.0 0.00 0.02 0.00 80 1022.2
20260901210017 56 271 0.0 0.0 0.00 0.02 0.00 81 1021.4
20260901204520 57 271 0.0 0.0 0.00 0.02 0.00 80 1021.2
20260901203011 57 271 0.0 0.0 0.00 0.02 0.00 79 1021.1
20260901201511 58 271 0.0 0.0 0.00 0.02 0.00 78 1021.0
20260901200057 59 0.0 0.0 0.00 0.02 0.00 77 1021.6
20260901200032 58 271 0.0 0.0 0.00 0.02 0.00 78 1021.0
20260901194509 59 271 0.0 0.0 0.00 0.02 0.00 76 1020.8
20260901193008 61 271 0.0 0.0 0.00 0.02 0.00 74 1020.8
20260901191509 61 271 0.0 0.0 0.00 0.02 0.00 74 1020.7
20260901190146 63 0.0 0.0 0.00 0.02 0.00 71 1021.4
20260901190009 62 271 0.0 0.0 0.00 0.02 0.00 72 1020.7
20260901184508 63 271 0.0 1.0 0.00 0.02 0.00 70 1020.6
20260901183006 65 271 0.0 0.0 0.00 0.02 0.00 66 1020.5
20260901181506 66 271 0.0 0.0 0.00 0.02 0.00 65 1020.4
20260901180156 67 0.0 0.0 0.00 0.02 0.00 64 1021.0
20260901180018 66 271 0.0 0.0 0.00 0.02 0.00 64 1020.1
20260901174505 67 271 0.0 1.0 0.00 0.02 0.00 65 1020.0
20260901173004 67 269 0.0 2.0 0.00 0.02 0.00 65 1020.0
20260901171503 68 259 0.0 2.0 0.00 0.02 0.00 64 1020.0
20260901170023 69 0.0 1.0 0.00 0.02 0.00 65 1021.1
20260901170008 68 184 0.0 2.0 0.00 0.02 0.00 64 1019.9
20260901164502 69 222 0.0 4.0 0.00 0.02 0.00 64 1020.1
20260901163007 69 213 0.0 3.0 0.00 0.02 0.00 62 1020.2
20260901161502 69 255 1.0 6.0 0.00 0.02 0.00 62 1020.3
20260901160109 71 248 1.0 2.0 0.00 0.02 0.00 61 1021.3
20260901160000 70 251 1.0 4.0 0.00 0.02 0.00 62 1020.1
20260901154607 71 222 0.0 2.0 0.00 0.02 0.00 62 1020.2
20260901153124 72 277 1.0 3.0 0.00 0.02 0.00 57 1020.1
20260901151559 73 265 0.0 4.0 0.00 0.02 0.00 59 1020.1
20260901150058 73 241 0.0 3.0 0.00 0.02 0.00 60 1020.1
20260901150040 75 225 1.0 3.0 0.00 0.02 0.00 57 1021.7
20260901144559 75 275 1.0 4.0 0.00 0.02 0.00 57 1020.2
20260901143058 75 294 1.0 5.0 0.00 0.02 0.00 60 1020.3
20260901141556 75 211 2.0 6.0 0.00 0.02 0.00 59 1020.4
20260901140111 75 270 1.0 3.0 0.00 0.02 0.00 57 1021.9
20260901140056 73 241 1.0 5.0 0.00 0.02 0.00 59 1020.5
20260901134555 75 204 3.0 9.0 0.00 0.02 0.00 58 1020.5
20260901133051 74 250 2.0 6.0 0.00 0.02 0.00 63 1020.5
20260901131600 73 254 1.0 4.0 0.00 0.02 0.00 60 1020.7
20260901130059 73 211 4.0 9.0 0.00 0.02 0.00 61 1020.8
20260901130033 73 270 1.0 5.0 0.00 0.02 0.00 61 1022.2
20260901124545 72 242 1.0 6.0 0.00 0.02 0.00 62 1021.0
20260901123044 71 277 0.0 3.0 0.00 0.02 0.00 64 1021.0
20260901121545 70 202 1.0 5.0 0.00 0.02 0.00 62 1021.0
20260901120039 70 241 1.0 7.0 0.00 0.02 0.00 65 1020.9
20260901120004 69 225 1.0 4.0 0.00 0.02 0.00 68 1022.2
20260901114538 68 245 1.0 6.0 0.00 0.02 0.00 67 1021.0
20260901113038 69 251 1.0 3.0 0.00 0.02 0.00 66 1021.1
20260901111538 70 215 0.0 7.0 0.00 0.02 0.00 66 1021.0
20260901110056 69 225 1.0 3.0 0.00 0.02 0.00 67 1022.3
20260901110035 70 303 0.0 5.0 0.00 0.02 0.00 66 1021.1
20260901104535 69 234 0.0 3.0 0.00 0.02 0.00 65 1021.0
20260901103033 69 249 1.0 4.0 0.00 0.02 0.00 64 1021.0
20260901101531 69 250 1.0 5.0 0.00 0.02 0.00 70 1021.0
20260901100027 67 225 0.0 12.0 0.00 0.02 0.00 73 1021.0
20260901100007 66 203 5.0 10.0 0.00 0.02 0.00 72 1022.1
20260901094524 65 275 1.0 5.0 0.00 0.02 0.00 72 1021.0
20260901093023 65 297 0.0 2.0 0.00 0.02 0.00 74 1021.1
20260901091522 65 355 1.0 3.0 0.00 0.02 0.00 74 1021.3
20260901090031 65 299 1.0 5.0 0.00 0.02 0.00 73 1021.2
20260901085940 66 0.0 1.0 0.00 0.02 0.00 75 1022.5
20260901084519 66 245 1.0 4.0 0.00 0.02 0.00 78 1021.3
20260901083029 64 29 0.0 4.0 0.00 0.02 0.00 78 1021.1
20260901081516 63 216 0.0 5.0 0.00 0.02 0.00 79 1021.1
20260901080122 63 0.0 0.0 0.00 0.02 0.00 81 1022.1
20260901080011 63 200 0.0 3.0 0.00 0.02 0.00 81 1021.0
20260901074516 62 200 0.0 2.0 0.00 0.02 0.00 82 1020.9
20260901073019 62 200 0.0 5.0 0.00 0.02 0.00 86 1021.0
20260901071503 61 177 0.0 3.0 0.00 0.02 0.00 90 1020.8
20260901070010 59 203 1.0 2.0 0.00 0.02 0.00 91 1021.8
20260901070002 59 198 0.0 3.0 0.00 0.02 0.00 91 1020.9
20260901063102 57 191 0.0 0.0 0.00 0.02 0.00 91 1021.0
20260901061610 56 191 0.0 2.0 0.00 0.02 0.00 91 1020.9
20260901060103 55 191 0.0 1.0 0.00 0.02 0.00 91 1020.8
20260901060045 56 0.0 0.0 0.00 0.02 0.00 90 1021.9
20260901054559 55 191 0.0 0.0 0.00 0.03 0.00 90 1020.9
20260901053120 55 191 0.0 0.0 0.00 0.03 0.00 90 1020.8
20260901051555 55 191 0.0 0.0 0.00 0.03 0.00 90 1020.7
20260901050056 54 191 1.0 4.0 0.00 0.03 0.00 90 1020.6
20260901045913 55 0.0 0.0 0.00 0.03 0.00 90 1021.5
20260901044550 55 191 0.0 0.0 0.00 0.09 0.00 90 1020.5
20260901043049 55 191 0.0 2.0 0.00 0.09 0.00 90 1020.5
20260901041547 55 191 0.0 2.0 0.00 0.09 0.00 89 1020.2
20260901040046 55 191 0.0 2.0 0.00 0.09 0.00 89 1020.1
20260901040005 55 0.0 1.0 0.00 0.10 0.00 88 1021.2
20260901034543 55 191 0.0 1.0 0.00 0.28 0.00 88 1020.1
20260901033049 56 191 0.0 1.0 0.00 0.28 0.00 88 1019.9
20260901031640 56 191 0.0 1.0 0.00 0.28 0.00 88 1019.9
20260901030038 57 191 0.0 2.0 0.00 0.28 0.00 87 1020.0
20260901025916 57 0.0 0.0 0.00 0.28 0.00 87 1021.2
20260901024537 57 191 0.0 3.0 0.00 0.28 0.00 87 1020.0
20260901023039 57 191 0.0 3.0 0.00 0.28 0.00 87 1019.7
20260901021533 58 175 0.0 3.0 0.00 0.28 0.00 87 1019.7
20260901020034 58 175 0.0 2.0 0.00 0.28 0.00 87 1019.5
20260901015852 58 158 1.0 2.0 0.00 0.28 0.00 87 1020.7
20260901014530 58 213 0.0 1.0 0.00 0.28 0.00 87 1019.5
20260901013032 58 213 0.0 1.0 0.00 0.28 0.00 86 1019.4
20260901011529 58 213 0.0 0.0 0.00 0.28 0.00 86 1019.4
20260901010036 58 213 0.0 0.0 0.00 0.28 0.00 86 1019.3
20260901005924 58 0.0 0.0 0.00 0.28 0.00 86 1020.7
20260901004527 58 213 0.0 0.0 0.00 0.28 0.00 86 1019.3
20260901003027 58 213 0.0 0.0 0.00 0.28 0.00 86 1019.2
20260901001626 58 213 0.0 2.0 0.00 0.28 0.00 87 1019.2